User: anonymous   Login
Location: Vancouver
(49.2500°N, 123.1330°W)
Time: 15:25:41
(UTC-08:00)
Language:

YAOGAN 6 - Orbit

View from above orbital plane
View from above orbital plane
View from above satellite
View from above satellite

Ground track
Ground track

The orbit data is extracted from the following two-line orbital elements,

1 34839U 09021A   15060.47620845  .00003888  00000-0  16961-3 0  9990
2 34839 097.2554 132.3439 0032497 049.5120 046.3722 15.22255246324818
Epoch (UTC): 01 March 2015 11:25:44
Eccentricity: 0.0032497
inclination: 97.2554°
perigee height: 476 km
apogee height: 521 km
right ascension of ascending node: 132.3439°
argument of perigee: 49.5120°
revolutions per day: 15.22255246
mean anomaly at epoch: 46.3722°
orbit number at epoch: 32481

The dashed part of the orbit path shows where the satellite is in the earth's shadow,  

DLR